Regional Weather Roundup
Issued by NWS

Home | Current Version | Previous Version | Text Only | Print | Product List | Glossary On
Versions: 1 2 3 4 5 6 7 8 9 10 11 12 13 14 15 16 17 18 19 20 21 22 23 24 25 26 27 28 29 30 31 32 33 34 35 36 37 38 39 40 41 42 43 44 45 46 47 48 49 50
000
ASUS43 KFSD 291910
RWRSD

WEATHER ROUNDUP FOR SOUTH DAKOTA
NATIONAL WEATHER SERVICE SIOUX FALLS SD
200 PM CDT FRI MAY 29 2015

NOTE: "FAIR" INDICATES FEW OR NO CLOUDS BELOW 12,000 FEET WITH NO
SIGNIFICANT WEATHER AND/OR OBSTRUCTIONS TO VISIBILITY.


SDZ001>005-009-010-012>017-292000-
NORTHWEST AND NORTH CENTRAL SOUTH DAKOTA

CITY           SKY/WX    TMP DP  RH WIND       PRES   REMARKS
BUFFALO          N/A     53  37  54 N15       30.21S
FAITH            N/A     50  38  63 N18       30.24S
MOBRIDGE       CLOUDY    52  42  69 N17       30.19R
$$

SDZ012>016-024>037-041>051-057-063-072>074-292000-
SOUTHWEST AND SOUTH CENTRAL SOUTH DAKOTA

CITY           SKY/WX    TMP DP  RH WIND       PRES   REMARKS
RAPID CTY ARPT CLOUDY    47  44  90 N20G30    30.25R FOG
PIERRE         CLOUDY    51  46  83 N24       30.16R
CUSTER         PTSUNNY   56  43  61 N7        30.22S
PHILIP         CLOUDY    50  46  86 N17       30.22S
PINE RIDGE     LGT RAIN  48  44  86 N17G25    30.22R
SPEARFISH      CLOUDY    46  45  93 NW9       30.31R
WINNER         LGT RAIN  54  49  83 N22G29    30.13R
$$

SDZ004>011-016>023-039-040-292000-
NORTHEAST SOUTH DAKOTA

CITY           SKY/WX    TMP DP  RH WIND       PRES   REMARKS
ABERDEEN       CLOUDY    51  43  74 N20       30.15R
WATERTOWN      CLOUDY    48  45  89 N16G30    30.06R
BROOKINGS      CLOUDY    52  46  82 N24G31    30.02R
SISSETON         N/A     50  46  86 N25G36    30.09R
$$

SDZ017-020-022-023-036>040-048>070-292000-
SOUTHEAST SOUTH DAKOTA

CITY           SKY/WX    TMP DP  RH WIND       PRES   REMARKS
SIOUX FALLS    RAIN      56  54  93 N18       29.96R
HURON            N/A     52  47  83 N22G31    30.08R
CHAMBERLAIN    DRIZZLE   51  49  93 N23G29    30.11R
MITCHELL       LGT RAIN  54  52  93 N25G35    30.04R
YANKTON        PTSUNNY   72  61  68 N12       29.90R
$$

ABBREVIATIONS USED IN REMARKS
   TC - TEMPERATURE IN CELSIUS
  WCI - WIND CHILL INDEX
   HX - HEAT INDEX
  VSB - VISIBILITY



USA.gov is the U.S. government's official web portal to all federal, state and local government web resources and services.